Weather History for Kinloss, United Kingdom

Change the Weather History Date:

Saturday, May 25, 2013

  Actual Average Record
Temperature  
Mean Temperature 51 °F -  
Max Temperature 65 °F 61 °F 71 °F (2001)
Min Temperature 37 °F 47 °F 37 °F (2000)
Degree Days  
Heating Degree Days 14    
Growing Degree Days 1 (Base 50)    
Moisture  
Dew Point 39 °F    
Average Humidity 63    
Maximum Humidity 87    
Minimum Humidity 29    
Precipitation  
Precipitation 0.00 in 0.06 in - ()
Sea Level Pressure  
Sea Level Pressure 30.11 in    
Wind  
Wind Speed 6 mph ()    
Max Wind Speed 12 mph    
Max Gust Speed -    
Visibility 6.7 miles    
Events      
Averages and records for this station are not official NWS values.
T = Trace of Precipitation, MM = Missing Value Source: Averaged Metar Reports

Daily Weather History Graph

Daily Weather History Graph

Search for Another Location

Airport:

Trip Planner

Search our weather history database for the weather conditions in past years. The results will help you decide how hot, cold, wet, or windy it might be!

Date:

Astronomy

May. 25, 2013 Rise Set
Actual Time 4:33 AM BST 9:49 PM BST
Civil Twilight 3:33 AM BST 10:50 PM BST
Nautical Twilight 1:43 AM BST 12:38 AM BST
Astronomical Twilight Sun does not rise Sun does not rise
Moon 10:18 PM BST (5/25) 4:54 AM BST (5/25)
Length of Visible Light 19h 17m
Length of Day
17h 16m
Full, 100% of the Moon is Illuminated
May 25
Full
May 31
Last Quarter
Jun 8
New
Jun 16
First Quarter
Jun 23
Full

Hourly Weather History & Observations

Time (BST) Temp. Windchill Dew Point Humidity Pressure Visibility Wind Dir Wind Speed Gust Speed Precip Events Conditions
12:50 AM 43 °F - 38 °F 77% 30.17 in 31 mi WSW 6.9 mph - -   Scattered Clouds
12:50 AM 42.8 °F 38.6 °F 39.2 °F 87% 30.15 in 6.2 mi WSW 6.9 mph - N/A   Partly Cloudy
1:50 AM 41.0 °F 36.4 °F 35.6 °F 81% 30.15 in 6.2 mi SW 6.9 mph - N/A   Unknown
2:50 AM 41.0 °F 35.2 °F 37.4 °F 87% 30.15 in 6.2 mi SW 9.2 mph - N/A   Unknown
3:50 AM 39 °F - 36 °F 83% 30.17 in 25 mi SW 4.6 mph - -  
3:50 AM 39.2 °F 35.9 °F 35.6 °F 87% 30.15 in 6.2 mi SW 4.6 mph - N/A   Unknown
4:50 AM 37.4 °F 33.8 °F 33.8 °F 87% 30.15 in 6.2 mi SW 4.6 mph - N/A   Unknown
5:50 AM 42.8 °F 38.6 °F 35.6 °F 76% 30.15 in 6.2 mi SW 6.9 mph - N/A   Unknown
6:50 AM 46 °F - 38 °F 64% 30.15 in 34 mi WSW 3.5 mph - -  
6:50 AM 46.4 °F 45.2 °F 37.4 °F 71% 30.12 in 6.2 mi WSW 3.5 mph - N/A   Unknown
7:50 AM 50.0 °F - 39.2 °F 66% 30.12 in 6.2 mi West 5.8 mph - N/A   Unknown
8:50 AM 53.6 °F - 39.2 °F 58% 30.12 in 6.2 mi WSW 6.9 mph - N/A   Unknown
9:50 AM 58 °F - 39 °F 37% 30.14 in 34 mi WSW 11.5 mph - -  
9:50 AM 57.2 °F - 39.2 °F 51% 30.12 in 6.2 mi WSW 11.5 mph - N/A   Unknown
10:50 AM 57.2 °F - 41.0 °F 55% 30.12 in 6.2 mi West 8.1 mph - N/A   Unknown
11:50 AM 60.8 °F - 37.4 °F 42% 30.09 in 6.2 mi WSW 10.4 mph - N/A   Unknown
12:50 PM 63 °F - 38 °F 29% 30.11 in 31 mi West 10.4 mph - -  
12:50 PM 62.6 °F - 39.2 °F 42% 30.09 in 6.2 mi West 10.4 mph - N/A   Unknown
1:50 PM 64.4 °F - 37.4 °F 37% 30.09 in 6.2 mi WSW 9.2 mph - N/A   Unknown
2:50 PM 64.4 °F - 41.0 °F 42% 30.06 in 6.2 mi WNW 8.1 mph - N/A   Unknown
3:50 PM 62 °F - 40 °F 32% 30.08 in 34 mi NNE 8.1 mph - -  
3:50 PM 62.6 °F - 39.2 °F 42% 30.06 in 6.2 mi NNE 8.1 mph - N/A   Unknown
4:50 PM 64.4 °F - 41.0 °F 42% 30.06 in 6.2 mi ENE 8.1 mph - N/A   Unknown
5:50 PM 62.6 °F - 41.0 °F 45% 30.04 in 6.2 mi East 8.1 mph - N/A   Unknown
6:50 PM 62 °F - 42 °F 36% 30.06 in 34 mi NNE 5.8 mph - -  
6:50 PM 62.6 °F - 41.0 °F 45% 30.06 in 6.2 mi NNE 5.8 mph - N/A   Unknown
7:50 PM 51.8 °F - 44.6 °F 76% 30.06 in 6.2 mi North 10.4 mph - N/A   Unknown
8:50 PM 46.4 °F 43.5 °F 42.8 °F 87% 30.09 in 6.2 mi NNW 5.8 mph - N/A   Unknown
9:50 PM 46 °F - 43 °F 84% 30.11 in 19 mi West 3.5 mph - -  
9:50 PM 46.4 °F 45.2 °F 42.8 °F 87% 30.09 in 6.2 mi West 3.5 mph - N/A   Unknown
10:50 PM 46.4 °F 43.5 °F 42.8 °F 87% 30.09 in 6.2 mi SW 5.8 mph - N/A   Unknown
11:50 PM 44.6 °F 42.2 °F 41.0 °F 87% 30.09 in 6.2 mi SSW 4.6 mph - N/A   Unknown